Location: Mactaquac Provincial Park
(45.9573°N, 66.8897°W)
Time: 09:20:08
(UTC-03:00)

CENTAUR R/B - Visible Passes

Search period start: 28 July 2014 00:00
Search period end: 07 August 2014 00:00
Orbit: 899 x 1290 km, 63.5° (Epoch: 25 July)

Date Brightness Start Highest point End Pass type
(mag) Time Alt. Az. Time Alt. Az. Time Alt. Az.
28 Jul 2.9 01:12:06 10° NW 01:19:41 87° NE 01:23:07 39° SE visible
28 Jul 4.0 03:03:50 10° WNW 03:09:45 25° WSW 03:10:15 25° WSW visible
28 Jul 4.6 22:33:20 10° NNW 22:39:11 25° NNE 22:45:24 10° ENE visible
29 Jul 3.3 00:23:59 10° NW 00:31:25 62° NE 00:35:53 28° ESE visible
29 Jul 3.5 02:15:02 10° NW 02:21:59 39° WSW 02:23:01 37° SW visible
29 Jul 4.8 21:44:57 10° NW 21:50:17 21° NNE 21:55:54 10° ENE visible
29 Jul 3.8 23:35:54 10° NNW 23:42:59 45° NE 23:48:44 17° ESE visible
30 Jul 3.1 01:26:37 10° NW 01:34:03 59° WSW 01:35:53 49° SSW visible
30 Jul 4.7 03:20:31 10° W 03:23:02 12° W 03:23:02 12° W visible
30 Jul 4.2 22:47:48 10° NNW 22:54:23 34° NNE 23:01:23 10° E visible
31 Jul 2.9 00:38:22 10° NW 00:45:58 86° SW 00:48:49 45° SSE visible
31 Jul 4.3 02:30:21 10° WNW 02:35:54 22° WSW 02:35:58 22° WSW visible
31 Jul 4.5 21:59:37 10° NNW 22:05:38 27° NNE 22:12:00 10° E visible
31 Jul 3.2 23:50:14 10° NW 23:57:44 67° NE 00:01:49 31° ESE visible
01 Aug 3.7 01:41:25 10° NW 01:48:10 35° WSW 01:48:58 34° SW visible
01 Aug 3.6 23:02:09 10° NNW 23:09:20 48° NE 23:14:52 19° ESE visible
02 Aug 3.2 00:52:56 10° NW 01:00:17 54° WSW 01:02:02 46° SSW visible
02 Aug 4.9 02:48:09 10° W 02:49:11 11° W 02:49:11 11° W visible
02 Aug 4.0 22:14:04 10° NNW 22:20:47 36° NNE 22:27:55 10° E visible
03 Aug 2.9 00:04:39 10° NW 00:12:14 79° SW 00:15:08 44° SSE visible
03 Aug 4.5 01:56:56 10° WNW 02:02:03 19° WSW 02:02:18 19° WSW visible
03 Aug 4.3 21:25:54 10° NNW 21:32:04 28° NNE 21:38:35 10° E visible
03 Aug 3.1 23:16:30 10° NW 23:24:02 73° NE 23:28:18 31° SE visible
04 Aug 3.9 01:07:50 10° NW 01:14:21 31° WSW 01:15:28 30° SW visible
04 Aug 3.5 22:28:24 10° NW 22:35:41 52° NE 22:41:31 18° ESE visible
05 Aug 3.4 00:19:15 10° NW 00:26:30 48° WSW 00:28:41 39° SSW visible
05 Aug 3.9 21:40:19 10° NNW 21:47:10 39° NE 21:54:26 10° ESE visible
05 Aug 3.0 23:30:56 10° NW 23:38:30 72° WSW 23:41:56 37° SSE visible
06 Aug 4.6 01:23:36 10° WNW 01:28:11 17° WSW 01:29:07 17° WSW visible
06 Aug 3.0 22:42:46 10° NW 22:50:20 80° NE 22:55:15 26° SE visible
